Temp
-24 -25 -25 -25 -25 -25 -25 -25 -25 -26 -26 -26 -26 -26 -26 -26 -26 -26 -27 -27 -27 -26 -27 -27 -27 -27 -26 -26 -26 -26 -26 -26 -26 -26 -26 -26 -26 -26 -27 -27 -27 -27 -28 -29 -30 -30 -31 -31 -31 -32 -32 -32 -32 -32 -32 -32 -32 -31 -31 -31 -31 -31 -31
-25 -25 -25 -25 -25 -25 -25 -26 -26 -26 -26 -26 -26 -26 -27 -27 -27 -27 -27 -27 -27 -27 -27 -27 -27 -27 -27 -27 -27 -27 -26 -26 -26 -26 -26 -26 -27 -27 -28 -29 -29 -29 -29 -30 -31 -31 -32 -32 -32 -32 -32 -32 -32 -31 -31 -31 -31 -31 -31 -31 -31 -31 -31
-25 -25 -25 -25 -25 -26 -26 -26 -26 -26 -26 -26 -26 -27 -27 -27 -27 -27 -27 -27 -27 -27 -27 -27 -27 -27 -27 -27 -27 -27 -27 -27 -27 -27 -27 -27 -28 -29 -29 -30 -31 -31 -31 -31 -31 -32 -32 -32 -32 -32 -32 -32 -31 -31 -31 -31 -31 -31 -31 -32 -32 -32 -32
-25 -25 -26 -26 -26 -26 -26 -26 -26 -26 -27 -27 -27 -27 -27 -27 -27 -27 -27 -27 -27 -27 -27 -27 -27 -27 -27 -27 -27 -27 -27 -27 -27 -28 -28 -29 -29 -30 -31 -31 -32 -32 -32 -31 -31 -32 -32 -32 -32 -32 -32 -32 -31 -31 -31 -31 -31 -31 -32 -32 -32 -32 -32
-26 -26 -26 -26 -26 -26 -26 -27 -27 -27 -27 -27 -27 -27 -27 -27 -28 -28 -28 -28 -28 -28 -28 -28 -28 -28 -28 -28 -28 -28 -28 -28 -28 -29 -29 -30 -31 -31 -32 -32 -32 -32 -32 -32 -32 -32 -32 -32 -32 -32 -32 -32 -31 -31 -31 -31 -32 -32 -32 -32 -32 -33 -33
-26 -26 -26 -26 -27 -27 -27 -27 -27 -27 -27 -27 -27 -27 -27 -28 -28 -28 -28 -28 -28 -28 -28 -28 -28 -28 -28 -28 -28 -28 -28 -29 -29 -30 -31 -31 -32 -32 -33 -33 -33 -33 -32 -32 -32 -32 -32 -32 -32 -32 -32 -32 -32 -31 -31 -32 -32 -32 -32 -32 -33 -33 -33
-26 -26 -27 -27 -27 -27 -27 -27 -27 -27 -27 -27 -27 -28 -28 -28 -28 -28 -28 -28 -28 -28 -28 -28 -28 -28 -29 -29 -29 -29 -29 -30 -30 -31 -32 -32 -33 -33 -33 -33 -33 -33 -33 -32 -32 -32 -32 -32 -32 -32 -32 -32 -32 -32 -32 -32 -32 -32 -32 -33 -33 -33 -33
-27 -27 -27 -27 -27 -27 -27 -27 -27 -27 -27 -27 -28 -28 -28 -28 -28 -28 -28 -28 -28 -28 -29 -29 -29 -29 -29 -29 -29 -30 -30 -31 -32 -32 -33 -33 -33 -33 -33 -33 -33 -33 -33 -33 -33 -33 -33 -32 -32 -32 -32 -32 -32 -32 -32 -32 -32 -32 -33 -33 -33 -33 -33
-27 -27 -27 -27 -27 -27 -27 -27 -27 -27 -27 -28 -28 -28 -28 -28 -28 -28 -29 -29 -29 -29 -29 -29 -29 -29 -29 -30 -30 -30 -31 -32 -33 -33 -33 -33 -33 -33 -33 -33 -33 -33 -33 -33 -33 -33 -33 -33 -32 -32 -32 -32 -32 -32 -32 -33 -33 -33 -33 -33 -33 -33 -33
-27 -27 -27 -27 -27 -28 -28 -28 -28 -28 -28 -28 -28 -28 -28 -28 -29 -29 -29 -29 -29 -29 -29 -29 -30 -30 -30 -30 -31 -31 -32 -33 -33 -33 -33 -33 -33 -34 -34 -33 -33 -33 -33 -33 -33 -33 -33 -33 -33 -33 -33 -33 -33 -33 -33 -33 -33 -33 -33 -33 -33 -33 -34
-27 -27 -28 -28 -28 -28 -28 -28 -28 -28 -28 -28 -28 -28 -28 -29 -29 -29 -29 -29 -29 -29 -30 -30 -30 -30 -31 -31 -32 -33 -33 -34 -34 -34 -34 -34 -34 -34 -34 -34 -34 -34 -34 -33 -33 -33 -33 -33 -33 -33 -33 -33 -33 -33 -33 -33 -33 -33 -33 -33 -33 -33 -34
-28 -28 -28 -28 -28 -28 -28 -28 -28 -28 -28 -28 -28 -28 -28 -29 -29 -29 -29 -30 -30 -30 -30 -30 -31 -31 -32 -33 -33 -34 -34 -34 -34 -34 -34 -34 -34 -34 -34 -34 -34 -33 -33 -33 -33 -33 -33 -33 -33 -33 -33 -33 -33 -33 -33 -33 -33 -33 -33 -33 -33 -34 -34
-28 -28 -28 -28 -28 -28 -28 -28 -28 -28 -28 -28 -29 -29 -29 -29 -29 -29 -30 -30 -30 -30 -30 -31 -31 -32 -33 -34 -34 -35 -34 -34 -34 -34 -35 -35 -34 -34 -34 -34 -34 -34 -33 -33 -33 -33 -33 -33 -33 -33 -33 -33 -33 -33 -33 -33 -33 -34 -34 -34 -34 -34 -34
-28 -28 -28 -28 -28 -28 -29 -29 -29 -29 -29 -29 -29 -29 -29 -29 -29 -29 -30 -30 -30 -30 -31 -31 -32 -33 -34 -35 -35 -35 -35 -34 -34 -34 -34 -35 -34 -34 -34 -34 -34 -34 -34 -33 -33 -33 -33 -33 -33 -33 -33 -34 -34 -33 -34 -34 -34 -34 -34 -34 -34 -34 -34
-28 -28 -28 -28 -29 -29 -29 -29 -29 -29 -29 -29 -29 -29 -29 -29 -30 -30 -30 -30 -30 -31 -31 -32 -33 -34 -35 -35 -35 -35 -35 -34 -34 -34 -34 -34 -34 -34 -34 -34 -34 -34 -34 -34 -34 -34 -34 -34 -34 -34 -34 -34 -34 -34 -34 -34 -34 -34 -34 -34 -34 -34 -35
-28 -29 -29 -29 -29 -29 -29 -29 -29 -29 -29 -29 -29 -29 -29 -30 -30 -30 -30 -30 -31 -31 -32 -33 -34 -35 -35 -35 -34 -35 -35 -34 -34 -34 -34 -34 -34 -34 -34 -34 -34 -34 -34 -34 -34 -34 -34 -34 -34 -34 -34 -34 -34 -34 -34 -34 -34 -34 -34 -34 -34 -34 -35
-29 -29 -29 -29 -29 -29 -29 -30 -30 -29 -29 -30 -30 -30 -30 -30 -30 -30 -31 -31 -31 -32 -33 -34 -35 -35 -35 -34 -35 -35 -35 -34 -34 -34 -34 -34 -34 -34 -35 -34 -34 -34 -35 -35 -35 -35 -35 -35 -34 -34 -34 -34 -34 -34 -34 -34 -34 -35 -35 -35 -35 -35 -35
-29 -29 -29 -29 -29 -29 -30 -30 -30 -30 -30 -30 -30 -30 -30 -30 -30 -31 -31 -31 -32 -33 -34 -35 -35 -35 -35 -34 -35 -35 -35 -35 -34 -34 -34 -34 -34 -34 -35 -35 -35 -35 -35 -35 -35 -35 -35 -35 -35 -35 -35 -35 -35 -35 -35 -35 -35 -35 -35 -35 -35 -35 -36
-29 -30 -30 -30 -30 -30 -30 -30 -30 -30 -30 -30 -30 -30 -31 -31 -31 -31 -31 -32 -33 -34 -35 -35 -35 -35 -35 -35 -35 -35 -35 -35 -34 -34 -34 -34 -34 -34 -35 -35 -35 -35 -35 -35 -35 -35 -35 -35 -35 -35 -35 -35 -35 -35 -35 -35 -35 -36 -36 -36 -36 -36 -36
-30 -30 -30 -30 -30 -30 -30 -30 -30 -31 -31 -31 -31 -31 -31 -31 -31 -31 -32 -33 -34 -35 -35 -35 -35 -35 -35 -35 -35 -35 -35 -35 -34 -34 -34 -34 -34 -34 -35 -35 -35 -35 -35 -35 -35 -35 -35 -35 -35 -35 -35 -36 -36 -36 -36 -36 -36 -36 -36 -36 -36 -37 -37
-30 -30 -30 -30 -30 -30 -30 -30 -31 -31 -31 -31 -31 -31 -31 -31 -31 -32 -32 -33 -34 -35 -35 -35 -35 -35 -35 -35 -35 -35 -35 -35 -35 -35 -35 -35 -34 -34 -35 -35 -35 -35 -35 -35 -35 -35 -35 -35 -35 -36 -36 -36 -36 -36 -36 -36 -36 -37 -37 -37 -37 -37 -37
-30 -30 -30 -31 -31 -31 -31 -31 -31 -31 -31 -31 -31 -31 -31 -32 -32 -33 -33 -34 -35 -35 -35 -35 -35 -35 -35 -35 -35 -35 -35 -35 -35 -35 -35 -35 -35 -35 -35 -35 -35 -35 -35 -35 -35 -35 -36 -36 -36 -36 -36 -36 -36 -36 -36 -36 -37 -37 -37 -37 -37 -37 -38
-30 -30 -30 -31 -31 -31 -31 -31 -31 -32 -32 -32 -32 -32 -32 -32 -33 -33 -34 -34 -35 -35 -35 -35 -35 -35 -35 -35 -35 -35 -35 -35 -35 -35 -35 -35 -35 -35 -35 -35 -35 -35 -35 -35 -36 -36 -36 -36 -36 -36 -36 -36 -36 -36 -36 -37 -37 -37 -37 -37 -37 -38 -38
-31 -31 -31 -31 -31 -31 -32 -32 -32 -32 -32 -32 -32 -32 -33 -33 -34 -34 -35 -35 -35 -35 -35 -35 -35 -35 -35 -35 -35 -35 -35 -35 -35 -35 -35 -35 -35 -35 -35 -35 -35 -35 -35 -36 -36 -36 -36 -36 -36 -36 -36 -36 -36 -36 -37 -37 -37 -37 -37 -37 -38 -38 -38
-31 -31 -31 -31 -31 -32 -32 -32 -32 -32 -32 -32 -32 -33 -33 -34 -34 -35 -35 -35 -35 -35 -35 -35 -35 -35 -35 -35 -35 -35 -35 -35 -35 -35 -35 -35 -35 -35 -35 -35 -35 -35 -35 -36 -36 -36 -36 -36 -36 -36 -36 -36 -36 -37 -37 -37 -37 -37 -37 -38 -38 -38 -38
-31 -31 -31 -31 -32 -32 -32 -33 -33 -33 -33 -32 -33 -33 -34 -35 -35 -35 -35 -35 -35 -35 -35 -35 -35 -35 -35 -35 -35 -35 -35 -35 -35 -35 -35 -35 -35 -35 -35 -35 -35 -35 -35 -36 -36 -36 -36 -36 -36 -36 -36 -36 -36 -37 -37 -37 -37 -37 -37 -38 -38 -38 -38
-32 -32 -32 -32 -32 -32 -32 -33 -33 -33 -33 -33 -33 -34 -35 -35 -35 -35 -35 -35 -35 -35 -35 -35 -35 -35 -35 -35 -35 -35 -35 -35 -35 -35 -35 -35 -35 -35 -35 -35 -35 -35 -35 -36 -36 -36 -36 -36 -36 -36 -36 -36 -36 -37 -37 -37 -37 -37 -37 -38 -38 -38 -38
-32 -32 -32 -32 -32 -32 -33 -33 -33 -33 -33 -33 -34 -35 -35 -36 -35 -35 -35 -35 -35 -35 -35 -35 -35 -35 -35 -35 -35 -35 -35 -35 -35 -35 -35 -35 -35 -35 -35 -35 -35 -35 -35 -36 -36 -36 -36 -36 -36 -36 -36 -36 -37 -37 -37 -37 -37 -37 -37 -38 -38 -38 -38
-32 -32 -32 -32 -33 -33 -33 -33 -33 -33 -33 -34 -35 -36 -36 -36 -36 -36 -36 -36 -36 -35 -35 -35 -35 -35 -35 -35 -35 -35 -35 -35 -35 -35 -35 -35 -35 -35 -35 -35 -35 -35 -35 -36 -36 -36 -36 -36 -36 -36 -36 -36 -37 -37 -37 -37 -37 -37 -38 -38 -38 -38 -38
-33 -33 -33 -33 -33 -33 -33 -33 -33 -34 -34 -35 -36 -36 -36 -36 -36 -36 -36 -36 -36 -36 -35 -35 -35 -35 -35 -35 -35 -35 -35 -35 -35 -35 -35 -35 -35 -35 -35 -35 -35 -35 -35 -36 -36 -36 -36 -36 -36 -36 -36 -36 -37 -37 -37 -37 -37 -38 -38 -38 -38 -38 -39
-33 -33 -33 -33 -33 -33 -33 -33 -33 -34 -35 -36 -36 -37 -36 -36 -36 -36 -36 -36 -36 -36 -36 -35 -35 -35 -35 -35 -35 -35 -35 -35 -35 -35 -35 -35 -35 -35 -35 -35 -35 -35 -36 -36 -36 -36 -36 -36 -36 -36 -36 -37 -37 -37 -37 -37 -37 -38 -38 -38 -38 -38 -39
-33 -33 -33 -33 -33 -34 -34 -34 -34 -35 -35 -36 -37 -37 -36 -36 -36 -36 -36 -36 -36 -36 -36 -35 -35 -35 -35 -35 -35 -35 -35 -35 -35 -35 -35 -35 -35 -35 -35 -35 -35 -35 -36 -36 -36 -36 -36 -36 -36 -36 -36 -37 -37 -37 -37 -37 -38 -38 -38 -38 -38 -38 -39
-34 -34 -34 -34 -34 -34 -34 -34 -34 -35 -36 -37 -37 -37 -36 -36 -36 -36 -36 -36 -36 -36 -36 -35 -35 -35 -35 -35 -35 -35 -35 -35 -35 -35 -35 -35 -35 -35 -35 -35 -35 -35 -36 -36 -36 -36 -36 -36 -36 -36 -36 -37 -37 -37 -37 -37 -38 -38 -38 -38 -38 -39 -39
-34 -34 -34 -34 -34 -34 -34 -34 -35 -36 -37 -37 -37 -37 -36 -37 -36 -36 -36 -36 -36 -36 -36 -36 -35 -35 -35 -35 -35 -35 -35 -35 -35 -35 -35 -35 -35 -35 -35 -35 -35 -35 -36 -36 -36 -36 -36 -36 -36 -36 -37 -37 -37 -37 -37 -38 -38 -38 -38 -38 -38 -39 -39
-35 -35 -34 -34 -34 -34 -34 -35 -35 -36 -37 -37 -37 -37 -37 -37 -37 -36 -36 -36 -36 -36 -36 -36 -35 -35 -35 -35 -35 -35 -35 -35 -35 -35 -35 -35 -35 -35 -35 -35 -35 -36 -36 -36 -36 -36 -36 -36 -36 -37 -37 -37 -37 -37 -37 -38 -38 -38 -38 -38 -39 -39 -39
-35 -35 -35 -35 -35 -35 -35 -35 -36 -37 -37 -37 -37 -37 -37 -37 -37 -37 -36 -36 -36 -36 -36 -36 -35 -35 -35 -35 -35 -35 -35 -35 -35 -35 -35 -35 -35 -35 -35 -35 -36 -36 -36 -36 -36 -36 -36 -36 -36 -37 -37 -37 -37 -37 -38 -38 -38 -38 -38 -39 -39 -39 -39
Height
5547 5545 5543 5541 5539 5537 5535 5533 5531 5529 5526 5524 5522 5519 5516 5514 5511 5508 5505 5502 5499 5497 5494 5490 5485 5482 5480 5477 5473 5468 5464 5462 5458 5455 5450 5445 5442 5437 5431 5429 5428 5427 5428 5424 5416 5413 5409 5402 5401 5399 5395 5393 5393 5390 5387 5386 5382 5380 5378 5373 5370 5367 5361
5539 5537 5535 5533 5532 5530 5528 5526 5524 5521 5520 5517 5515 5513 5509 5507 5504 5500 5497 5494 5491 5488 5485 5482 5477 5473 5471 5468 5463 5458 5455 5452 5448 5444 5440 5434 5430 5426 5420 5417 5416 5414 5415 5416 5411 5406 5401 5397 5394 5393 5389 5386 5387 5385 5382 5380 5376 5373 5370 5365 5362 5359 5353
5532 5530 5528 5526 5524 5523 5521 5519 5517 5515 5513 5511 5509 5506 5503 5500 5497 5493 5489 5486 5482 5479 5476 5472 5468 5464 5461 5458 5454 5448 5445 5442 5438 5434 5429 5423 5419 5416 5412 5407 5406 5404 5404 5406 5405 5400 5394 5391 5388 5385 5382 5381 5381 5379 5376 5373 5370 5367 5362 5357 5354 5350 5345
5524 5522 5521 5519 5517 5516 5514 5512 5510 5508 5506 5504 5502 5499 5496 5492 5489 5485 5482 5478 5474 5470 5467 5463 5459 5455 5452 5449 5444 5439 5435 5432 5428 5423 5419 5414 5409 5406 5404 5400 5397 5396 5395 5397 5398 5393 5387 5384 5382 5379 5376 5375 5375 5372 5369 5366 5364 5360 5355 5350 5346 5342 5337
5517 5515 5514 5512 5510 5509 5507 5505 5503 5502 5500 5498 5495 5492 5489 5485 5481 5477 5473 5469 5465 5462 5458 5454 5450 5445 5442 5439 5435 5429 5425 5421 5417 5413 5409 5405 5401 5398 5396 5393 5390 5388 5388 5388 5388 5386 5381 5377 5375 5373 5369 5367 5368 5366 5363 5360 5357 5353 5348 5344 5340 5335 5328
5510 5509 5507 5505 5504 5502 5500 5498 5497 5495 5493 5491 5488 5485 5482 5478 5474 5469 5465 5461 5457 5453 5449 5445 5441 5436 5432 5428 5425 5420 5415 5411 5407 5403 5400 5396 5394 5391 5389 5387 5384 5382 5381 5380 5379 5378 5375 5371 5368 5366 5364 5360 5359 5359 5357 5354 5351 5347 5341 5336 5334 5328 5321
5504 5502 5500 5498 5497 5495 5493 5491 5489 5487 5486 5483 5481 5478 5474 5470 5466 5461 5457 5452 5448 5444 5440 5436 5432 5427 5422 5418 5414 5410 5405 5401 5398 5395 5392 5389 5387 5385 5383 5381 5378 5376 5374 5373 5372 5370 5367 5365 5361 5359 5358 5355 5352 5351 5349 5346 5345 5342 5335 5329 5327 5321 5314
5497 5495 5493 5491 5490 5488 5486 5484 5482 5480 5478 5476 5473 5470 5467 5463 5458 5454 5449 5444 5439 5435 5431 5427 5423 5418 5413 5408 5404 5400 5396 5393 5390 5388 5386 5383 5380 5379 5377 5374 5372 5370 5368 5367 5366 5363 5360 5358 5356 5352 5351 5349 5346 5344 5341 5337 5336 5334 5329 5324 5320 5313 5305
5490 5488 5486 5485 5483 5480 5478 5476 5474 5473 5471 5468 5466 5463 5459 5455 5451 5446 5442 5436 5431 5426 5422 5418 5414 5408 5403 5399 5395 5391 5388 5385 5383 5382 5381 5378 5375 5373 5370 5368 5366 5364 5362 5361 5359 5356 5353 5352 5349 5346 5344 5342 5339 5337 5334 5330 5327 5325 5320 5316 5313 5305 5295
5483 5481 5479 5477 5475 5473 5471 5469 5467 5465 5463 5461 5458 5456 5452 5448 5443 5439 5435 5429 5424 5418 5413 5409 5404 5399 5393 5389 5386 5383 5380 5378 5376 5375 5374 5372 5369 5367 5364 5363 5361 5359 5357 5355 5353 5350 5347 5345 5344 5340 5337 5335 5332 5329 5326 5322 5319 5316 5312 5307 5305 5300 5288
5475 5474 5472 5470 5467 5465 5463 5461 5459 5457 5455 5453 5451 5448 5445 5441 5436 5430 5426 5421 5416 5411 5404 5399 5394 5389 5384 5379 5377 5375 5373 5372 5370 5368 5367 5365 5363 5361 5358 5357 5356 5353 5351 5349 5347 5344 5340 5338 5337 5333 5329 5326 5324 5321 5318 5314 5310 5306 5302 5298 5294 5290 5282
5468 5467 5465 5462 5460 5457 5455 5453 5451 5449 5447 5444 5442 5440 5439 5435 5429 5423 5417 5412 5407 5402 5396 5391 5385 5381 5376 5371 5369 5369 5368 5367 5365 5363 5361 5359 5357 5355 5353 5351 5350 5348 5346 5343 5340 5338 5333 5331 5330 5327 5322 5318 5316 5314 5309 5306 5301 5296 5292 5289 5283 5277 5271
5461 5459 5457 5455 5452 5449 5447 5444 5443 5441 5439 5436 5434 5431 5430 5427 5422 5416 5410 5404 5398 5393 5388 5383 5378 5374 5369 5365 5364 5364 5363 5362 5361 5359 5357 5354 5352 5350 5347 5345 5343 5341 5339 5336 5334 5332 5327 5323 5322 5320 5315 5310 5308 5306 5302 5298 5294 5287 5283 5280 5274 5266 5260
5454 5452 5449 5447 5445 5442 5439 5436 5435 5433 5430 5428 5426 5423 5421 5418 5413 5408 5403 5396 5390 5385 5380 5375 5370 5367 5365 5361 5360 5359 5358 5357 5356 5354 5352 5349 5346 5344 5342 5339 5337 5334 5332 5329 5327 5325 5321 5317 5314 5312 5308 5303 5299 5297 5293 5290 5285 5280 5276 5272 5265 5257 5250
5447 5444 5441 5439 5437 5434 5431 5428 5426 5425 5422 5419 5417 5414 5412 5408 5403 5399 5394 5387 5381 5376 5371 5367 5363 5361 5360 5358 5356 5354 5353 5352 5351 5349 5347 5344 5342 5339 5336 5333 5331 5328 5325 5322 5319 5317 5314 5311 5307 5304 5300 5296 5292 5289 5286 5282 5277 5271 5268 5264 5257 5248 5240
5439 5437 5434 5431 5429 5427 5423 5420 5418 5417 5414 5410 5408 5406 5403 5399 5394 5390 5385 5378 5372 5367 5362 5358 5356 5356 5355 5354 5352 5350 5348 5347 5346 5344 5342 5340 5337 5334 5331 5328 5325 5322 5319 5316 5313 5310 5307 5304 5301 5297 5293 5289 5285 5281 5278 5274 5268 5261 5257 5253 5247 5241 5232
5431 5429 5426 5423 5421 5420 5416 5412 5408 5408 5405 5401 5399 5397 5394 5391 5386 5380 5375 5369 5363 5358 5354 5351 5350 5350 5350 5349 5347 5345 5343 5341 5341 5339 5337 5335 5332 5329 5326 5323 5320 5317 5314 5311 5308 5305 5301 5298 5294 5290 5285 5281 5276 5272 5268 5264 5258 5252 5246 5242 5237 5232 5226
5424 5420 5418 5416 5413 5411 5409 5404 5399 5398 5396 5392 5389 5388 5385 5382 5377 5372 5366 5360 5355 5350 5347 5346 5345 5344 5344 5343 5341 5339 5338 5337 5336 5334 5332 5330 5328 5325 5321 5318 5316 5312 5309 5306 5302 5299 5295 5291 5287 5283 5278 5273 5268 5263 5259 5254 5249 5244 5238 5233 5226 5222 5218
5416 5413 5409 5408 5405 5403 5400 5396 5391 5388 5387 5384 5380 5378 5376 5373 5369 5363 5357 5352 5348 5344 5341 5340 5340 5339 5338 5338 5336 5335 5333 5332 5331 5330 5327 5325 5323 5320 5317 5314 5311 5308 5304 5301 5297 5293 5289 5285 5281 5276 5271 5266 5261 5256 5251 5246 5241 5235 5229 5224 5218 5211 5207
5408 5405 5401 5398 5397 5394 5391 5388 5384 5379 5377 5375 5372 5368 5366 5363 5359 5354 5350 5345 5341 5338 5337 5335 5334 5334 5333 5332 5331 5330 5329 5327 5326 5324 5322 5320 5318 5315 5312 5309 5306 5302 5299 5296 5291 5287 5283 5279 5275 5270 5265 5260 5255 5250 5244 5238 5232 5227 5221 5215 5210 5203 5197
5400 5398 5394 5390 5388 5386 5382 5380 5377 5372 5368 5366 5363 5360 5357 5354 5349 5345 5341 5338 5335 5333 5332 5331 5330 5329 5328 5327 5326 5325 5324 5322 5320 5319 5317 5315 5312 5310 5307 5304 5301 5297 5293 5290 5286 5282 5278 5273 5269 5264 5259 5254 5248 5243 5237 5231 5225 5219 5213 5206 5201 5195 5190
5392 5390 5387 5382 5378 5376 5374 5371 5368 5364 5360 5356 5354 5351 5347 5344 5340 5335 5333 5332 5330 5328 5327 5326 5325 5324 5323 5322 5321 5320 5319 5317 5315 5313 5311 5309 5306 5304 5301 5298 5295 5292 5288 5284 5281 5276 5272 5267 5263 5258 5252 5247 5242 5236 5230 5225 5218 5211 5205 5199 5192 5186 5181
5384 5383 5380 5375 5370 5367 5365 5362 5359 5356 5352 5349 5345 5342 5338 5334 5331 5327 5326 5325 5325 5323 5322 5321 5320 5319 5318 5317 5316 5315 5313 5312 5309 5307 5305 5303 5300 5298 5295 5292 5289 5286 5282 5279 5275 5270 5266 5261 5256 5252 5246 5240 5235 5229 5224 5218 5212 5205 5198 5192 5185 5178 5171
5376 5375 5373 5369 5364 5359 5356 5354 5351 5347 5344 5341 5337 5333 5329 5325 5322 5320 5319 5319 5319 5318 5317 5316 5315 5314 5313 5312 5311 5310 5308 5306 5304 5302 5299 5297 5295 5292 5289 5286 5283 5280 5276 5273 5269 5264 5260 5255 5250 5245 5240 5234 5228 5223 5217 5212 5206 5199 5192 5185 5179 5172 5164
5369 5367 5365 5362 5358 5352 5347 5344 5342 5338 5335 5332 5329 5324 5320 5317 5315 5314 5313 5313 5313 5312 5311 5310 5310 5309 5308 5307 5306 5304 5303 5301 5298 5296 5294 5291 5289 5286 5283 5281 5277 5274 5270 5266 5262 5258 5254 5248 5243 5239 5233 5228 5222 5216 5211 5205 5200 5193 5186 5179 5173 5167 5159
5361 5359 5357 5354 5351 5347 5341 5336 5332 5329 5326 5323 5320 5315 5312 5310 5309 5308 5308 5308 5307 5306 5306 5305 5304 5304 5303 5302 5301 5299 5297 5295 5293 5291 5288 5286 5283 5281 5278 5275 5272 5268 5264 5260 5256 5252 5247 5242 5237 5232 5227 5221 5216 5209 5203 5198 5193 5187 5179 5172 5167 5161 5154
5353 5351 5349 5346 5343 5340 5336 5330 5324 5321 5318 5315 5311 5308 5305 5304 5303 5303 5302 5302 5301 5300 5300 5300 5299 5299 5298 5297 5296 5294 5292 5290 5288 5285 5283 5280 5278 5275 5272 5269 5266 5262 5258 5255 5250 5246 5241 5236 5231 5226 5220 5215 5209 5203 5196 5190 5185 5180 5173 5166 5159 5154 5148
5345 5342 5340 5339 5336 5332 5329 5324 5317 5313 5311 5307 5303 5301 5299 5298 5298 5298 5297 5296 5295 5295 5295 5294 5294 5293 5292 5291 5290 5289 5287 5285 5282 5280 5278 5275 5272 5269 5266 5262 5259 5256 5252 5248 5244 5240 5235 5230 5225 5219 5214 5208 5203 5196 5189 5183 5177 5172 5165 5158 5152 5146 5141
5337 5333 5332 5331 5328 5324 5322 5318 5310 5305 5303 5300 5296 5294 5294 5293 5293 5292 5292 5290 5290 5290 5289 5289 5288 5288 5287 5286 5285 5283 5281 5279 5277 5274 5272 5269 5266 5263 5259 5256 5253 5249 5246 5242 5238 5233 5229 5224 5218 5213 5207 5202 5196 5190 5183 5176 5170 5164 5157 5151 5144 5138 5133
5328 5325 5323 5322 5319 5316 5314 5311 5306 5299 5295 5292 5290 5288 5288 5288 5288 5287 5286 5285 5285 5285 5284 5283 5283 5282 5281 5281 5279 5277 5275 5273 5271 5268 5265 5263 5260 5257 5253 5250 5246 5242 5239 5235 5230 5226 5221 5217 5211 5206 5200 5194 5189 5183 5176 5169 5163 5156 5149 5143 5137 5131 5125
5320 5317 5315 5314 5312 5308 5305 5302 5299 5294 5289 5286 5284 5283 5283 5283 5282 5282 5281 5280 5280 5279 5278 5278 5277 5277 5276 5275 5274 5272 5270 5267 5265 5262 5259 5257 5253 5250 5247 5243 5239 5235 5232 5228 5223 5219 5214 5209 5204 5198 5193 5187 5181 5176 5169 5162 5156 5149 5142 5135 5129 5122 5117
5311 5309 5307 5304 5303 5301 5298 5293 5289 5286 5282 5280 5278 5278 5278 5278 5277 5276 5276 5275 5275 5274 5273 5273 5272 5271 5270 5269 5268 5266 5264 5261 5259 5256 5253 5251 5247 5243 5240 5236 5233 5229 5225 5220 5216 5211 5206 5201 5195 5190 5185 5179 5173 5167 5162 5155 5148 5141 5134 5128 5121 5114 5108
5302 5300 5298 5296 5293 5292 5290 5286 5282 5278 5276 5274 5273 5273 5273 5273 5272 5271 5270 5270 5270 5269 5267 5267 5267 5265 5264 5263 5262 5260 5258 5255 5253 5250 5247 5244 5241 5237 5233 5229 5225 5222 5218 5213 5208 5203 5198 5193 5187 5182 5177 5171 5165 5159 5153 5147 5140 5133 5127 5120 5113 5106 5100
5293 5291 5290 5287 5284 5283 5281 5278 5275 5271 5269 5268 5267 5267 5268 5268 5266 5265 5265 5264 5264 5263 5262 5261 5260 5259 5258 5257 5255 5253 5251 5249 5246 5243 5240 5238 5234 5231 5226 5222 5218 5214 5210 5205 5200 5195 5190 5185 5179 5174 5168 5163 5157 5151 5145 5138 5132 5125 5119 5112 5105 5098 5092
5281 5280 5280 5278 5275 5274 5273 5270 5267 5265 5263 5263 5262 5262 5262 5262 5261 5260 5259 5258 5257 5257 5256 5255 5254 5253 5252 5250 5249 5247 5245 5242 5239 5236 5233 5231 5227 5224 5220 5215 5211 5207 5202 5198 5193 5188 5182 5177 5172 5166 5160 5155 5149 5143 5137 5130 5124 5117 5111 5104 5097 5090 5083
5272 5269 5268 5267 5265 5265 5264 5262 5259 5258 5257 5257 5257 5257 5257 5256 5255 5255 5254 5253 5251 5251 5250 5249 5248 5247 5245 5244 5242 5240 5238 5235 5233 5230 5227 5224 5220 5217 5213 5208 5204 5200 5195 5190 5185 5180 5175 5169 5164 5158 5152 5147 5141 5135 5128 5122 5115 5109 5102 5095 5088 5081 5074
Wind_Speed
56 56 56 56 56 56 56 56 56 55 55 55 56 56 58 59 60 61 62 63 64 66 67 68 70 72 73 74 77 79 80 81 82 83 84 85 84 83 80 77 73 68 62 54 50 47 46 47 47 46 48 49 48 50 51 50 51 52 52 53 55 56 58
56 56 56 56 55 55 55 54 54 54 54 55 56 56 57 58 59 60 62 63 65 66 68 69 72 74 75 77 79 81 82 82 84 84 85 84 82 77 73 68 62 58 53 45 41 40 42 45 46 46 48 49 48 48 48 48 49 50 52 54 55 56 58
55 55 55 55 54 54 53 53 53 54 55 55 55 56 57 58 59 61 62 64 66 68 69 71 74 76 77 79 80 82 83 84 85 85 83 79 75 69 63 58 52 48 45 40 36 38 42 44 46 47 48 48 46 46 46 47 48 50 52 54 55 56 58
54 54 54 54 53 53 52 53 53 54 54 55 55 56 57 58 60 61 63 65 67 69 71 73 75 77 79 80 81 83 85 85 84 82 78 72 66 60 53 47 44 43 42 38 35 38 43 44 45 46 47 46 44 45 46 47 48 49 51 53 54 56 58
53 53 53 53 52 52 52 53 53 53 54 54 55 56 57 58 60 62 64 66 68 70 73 75 77 79 80 81 83 85 86 85 82 76 70 63 56 49 44 41 42 42 41 40 38 39 42 45 45 45 46 46 44 44 46 47 48 49 51 53 54 56 59
52 52 52 52 52 52 52 53 53 53 54 55 55 56 58 59 61 63 65 68 70 72 74 76 78 80 81 83 85 86 84 81 76 69 61 53 46 41 40 40 43 43 42 42 41 41 42 44 45 45 45 46 46 45 46 47 48 49 51 53 54 57 60
52 52 52 52 52 52 52 53 53 54 54 55 56 57 58 60 62 64 67 69 71 74 75 77 79 81 83 84 85 84 81 76 69 60 51 44 40 39 41 42 42 43 43 42 42 42 43 43 45 45 45 46 47 47 47 49 48 49 52 54 55 57 61
52 52 52 52 52 52 53 53 54 55 55 56 57 58 59 61 63 66 68 71 73 75 77 78 80 82 84 85 84 81 75 68 59 50 42 39 40 41 41 42 42 43 43 43 42 44 45 45 45 46 46 46 47 47 48 50 50 50 52 55 57 60 63
52 52 52 52 52 52 53 54 55 55 56 57 57 59 60 62 65 67 69 71 74 76 77 79 81 83 83 82 79 74 67 59 50 43 38 38 40 41 41 42 42 43 43 43 44 45 46 46 45 46 46 47 48 48 49 50 52 53 54 56 58 61 65
52 51 51 51 52 53 54 55 55 56 57 57 58 60 62 63 66 68 69 72 74 76 78 80 81 82 81 78 74 67 59 50 43 40 38 38 39 40 41 42 42 43 43 44 45 46 46 45 45 46 47 47 48 49 50 52 54 55 57 59 60 62 66
51 51 51 51 52 54 55 55 56 57 57 59 60 61 63 64 66 69 71 73 74 76 79 81 81 80 77 72 66 58 49 43 40 40 39 38 39 39 41 41 42 43 44 45 45 45 46 46 45 47 49 49 50 51 52 54 56 58 59 61 63 64 67
51 51 51 52 53 55 56 56 57 58 59 60 62 63 64 65 67 69 71 73 75 77 79 80 79 75 69 63 55 47 42 40 39 39 38 38 38 39 41 42 43 44 44 45 45 45 46 47 46 47 50 51 52 53 54 56 58 60 62 63 66 67 69
51 51 52 53 54 56 56 57 58 59 60 62 63 65 65 66 68 69 71 73 76 78 79 77 73 67 59 52 46 42 40 39 38 37 37 37 38 39 41 43 44 45 45 45 45 45 47 48 48 49 51 53 54 55 57 58 60 62 64 65 67 69 71
51 52 53 54 55 56 57 58 59 60 62 64 65 66 67 67 69 70 72 74 77 79 78 73 66 58 49 44 42 40 39 37 36 36 36 37 39 41 43 44 45 45 45 46 46 46 47 49 50 51 52 55 56 57 58 60 61 63 65 66 68 71 73
52 53 54 55 56 57 58 60 61 62 64 65 66 67 67 68 70 71 73 76 78 78 74 66 57 49 42 39 39 39 37 36 36 36 36 37 40 42 43 44 44 44 45 46 47 47 48 50 51 53 54 56 57 58 60 61 63 65 66 67 69 72 75
53 54 55 56 57 58 59 61 63 64 65 66 67 68 69 69 71 72 74 77 77 74 66 56 47 41 38 37 37 36 36 36 35 35 36 38 40 41 42 43 43 44 45 46 47 48 49 50 52 54 55 57 59 60 62 63 65 67 68 69 70 72 75
54 55 56 57 58 59 60 62 64 65 66 67 68 68 69 69 71 73 75 76 73 65 54 46 41 38 36 35 34 34 35 35 34 35 37 38 39 40 41 42 42 43 44 45 46 48 50 51 53 55 57 59 61 63 64 65 67 68 70 71 72 73 74
55 56 57 58 59 60 61 63 65 66 66 67 68 69 69 69 72 74 75 73 65 54 45 40 38 36 34 33 32 33 34 34 34 36 37 38 38 38 39 40 41 42 43 45 47 49 51 53 55 57 59 61 62 64 65 67 68 69 71 72 73 75 75
55 56 58 59 60 61 62 63 65 67 67 67 68 69 69 70 73 74 73 67 55 44 39 37 36 34 32 31 32 32 33 34 35 35 36 36 37 37 38 39 40 42 43 45 47 49 51 53 55 57 59 61 63 65 66 68 69 71 72 73 74 76 77
56 57 59 60 60 61 63 64 65 66 67 67 68 69 70 72 73 72 68 58 44 38 37 36 34 32 31 31 31 31 32 34 34 34 34 35 36 36 37 39 40 42 44 45 47 49 51 54 56 58 60 62 64 66 68 69 70 72 73 74 75 77 78
57 57 59 60 61 62 63 64 65 65 66 67 68 69 71 72 71 68 60 47 37 36 35 34 32 31 30 30 30 31 32 32 33 33 34 35 36 36 37 39 40 42 44 45 47 50 52 54 56 59 61 63 65 67 68 70 71 72 74 75 76 77 78
58 58 59 61 62 63 64 64 65 65 66 67 68 70 71 70 66 61 50 39 34 35 34 32 30 30 30 30 30 30 31 32 32 33 34 35 36 37 38 39 40 42 44 46 48 51 53 55 57 59 62 64 65 67 68 70 71 72 74 75 77 78 78
59 59 60 61 62 63 64 64 64 65 66 67 69 70 69 65 59 51 41 35 33 34 33 31 29 29 30 30 30 30 30 31 33 33 34 35 36 37 38 40 42 44 46 48 50 52 54 57 58 60 62 64 66 67 68 70 71 72 74 75 77 79 79
59 59 60 60 61 62 63 63 64 65 66 67 69 68 65 58 50 42 36 34 34 33 32 30 29 30 30 30 30 30 31 32 33 34 35 36 37 38 40 42 44 46 47 49 51 53 55 58 60 61 63 65 66 67 68 70 71 72 73 75 76 78 79
59 59 59 60 60 61 62 63 63 64 66 68 68 65 58 50 42 37 35 34 34 33 32 30 30 30 30 31 31 31 31 33 34 35 36 37 38 40 42 44 46 47 49 51 53 55 57 59 61 62 64 65 67 68 69 70 71 71 73 75 76 77 78
58 59 59 59 59 60 61 62 63 64 66 67 66 60 52 44 37 35 35 34 34 34 32 31 31 30 31 32 31 32 33 34 36 36 37 39 41 42 44 45 47 49 50 52 54 56 58 60 62 63 65 66 67 69 70 71 71 72 73 74 75 76 76
58 59 59 59 59 59 59 61 62 64 66 66 62 54 46 39 35 35 35 35 35 34 33 32 32 32 32 33 32 33 34 36 37 38 39 41 43 44 46 47 48 50 51 53 55 57 59 61 63 64 66 67 68 69 71 71 72 72 73 74 75 75 75
58 59 59 59 58 58 58 60 62 64 65 62 56 47 40 36 35 36 36 36 36 35 34 33 33 33 34 34 34 35 36 37 38 40 41 43 45 46 48 49 50 52 53 54 56 58 60 62 63 65 66 68 69 70 71 72 72 73 73 74 75 75 75
58 59 59 58 58 58 58 59 61 64 62 57 49 42 37 35 35 36 37 37 37 36 35 34 35 36 36 35 35 36 38 38 40 42 44 45 46 48 49 51 52 53 55 56 57 59 61 62 64 65 67 68 69 70 72 72 73 73 73 74 75 75 75
58 59 58 57 57 57 58 58 60 61 57 49 43 39 36 35 36 37 37 38 39 38 37 36 37 38 38 37 38 39 40 41 42 44 46 47 48 49 51 53 54 55 56 57 59 60 62 63 65 66 68 69 70 71 72 72 73 73 73 74 75 75 76
58 58 58 57 56 57 58 58 59 57 51 43 39 37 35 35 37 38 38 39 39 38 38 39 39 40 40 39 40 41 42 43 44 46 47 48 49 51 52 53 55 56 58 59 60 62 63 65 66 67 69 70 71 71 72 72 72 73 73 74 75 75 76
57 57 57 57 56 56 57 58 57 52 44 39 37 36 35 36 38 39 39 39 38 38 39 40 40 41 42 41 42 43 43 45 46 47 48 49 50 52 53 54 56 57 58 60 61 63 65 66 67 68 70 71 72 72 73 72 72 73 73 74 75 76 76
56 56 56 56 56 56 56 56 53 46 39 36 36 36 36 36 38 39 39 39 38 38 39 40 41 42 43 43 44 44 45 46 47 48 49 50 51 53 54 56 57 58 59 61 62 64 66 67 68 69 71 72 73 73 73 73 72 73 73 74 75 76 77
56 55 55 56 56 56 56 55 49 41 37 35 35 36 36 36 36 37 38 38 37 37 38 40 41 42 44 44 45 45 46 47 48 49 50 51 53 54 55 56 57 59 60 62 63 65 66 68 69 71 72 73 73 74 74 73 73 73 74 74 76 77 78
56 56 55 56 56 56 55 52 45 38 35 34 35 35 36 36 35 36 36 37 37 37 38 39 41 43 44 45 45 46 47 47 49 50 52 53 54 55 55 56 57 59 61 63 64 66 67 68 70 71 73 74 74 74 74 74 73 73 74 75 77 78 79
55 56 56 57 57 56 53 48 41 36 34 33 34 35 35 35 35 35 35 36 37 38 39 40 41 43 44 45 46 46 47 48 50 52 53 54 54 55 56 56 57 59 61 63 65 66 67 69 70 72 73 74 75 75 74 74 73 74 75 76 77 79 80
Wind_Direction
284 285 285 286 286 287 287 288 288 289 290 290 291 292 293 293 294 294 295 295 296 297 298 299 300 301 302 303 304 304 304 305 305 306 307 307 307 307 305 304 303 302 301 297 292 289 284 282 283 283 284 285 287 290 292 293 294 295 296 296 296 297 297
286 286 287 287 287 287 288 288 289 289 290 291 292 292 293 294 294 295 296 297 298 299 300 301 302 303 304 305 305 305 306 307 307 308 309 308 307 306 304 303 301 299 297 294 288 283 282 282 284 284 285 287 288 290 292 293 295 296 298 298 299 300 300
287 287 287 287 287 288 288 289 289 290 291 291 292 293 294 295 295 296 297 298 300 301 302 304 304 305 305 306 306 307 307 308 309 310 309 308 306 304 302 300 298 295 293 291 286 283 282 283 285 286 287 288 290 291 292 294 296 298 299 300 302 303 304
287 287 287 287 287 288 289 289 290 290 291 292 293 294 295 295 297 298 299 300 302 303 304 305 305 306 306 307 308 308 309 310 311 310 309 306 303 301 299 296 293 291 291 290 287 285 284 285 286 287 289 290 292 294 296 297 299 300 302 303 305 307 307
287 287 287 288 288 289 289 289 290 291 292 293 294 294 296 297 298 300 301 302 304 305 305 306 306 307 308 309 310 311 312 312 311 309 306 303 300 298 295 292 291 291 292 292 289 286 287 288 289 290 293 294 294 295 297 299 301 303 304 306 308 308 308
287 287 288 288 288 289 289 290 291 292 293 294 295 296 297 299 300 302 303 304 305 306 306 307 308 309 310 311 312 313 313 312 309 306 303 300 297 295 292 291 292 292 292 292 291 290 289 290 292 294 295 297 297 297 298 299 302 305 306 307 309 309 309
287 287 288 289 289 290 290 291 292 293 294 295 296 297 299 300 302 303 304 305 306 306 307 308 309 310 311 312 313 313 312 309 306 302 300 297 294 292 291 291 291 292 292 292 292 293 292 293 295 296 296 297 298 299 300 301 303 305 306 308 309 310 309
288 288 289 290 290 291 291 292 293 294 295 296 297 299 300 302 303 304 305 306 306 307 308 309 310 311 312 313 313 312 309 305 301 298 295 292 291 291 291 291 291 292 292 293 294 295 295 296 297 297 297 297 299 301 303 304 305 307 307 308 310 311 310
289 289 290 290 291 291 292 292 293 294 296 297 298 299 301 303 304 305 305 306 307 308 309 310 311 312 313 312 311 308 304 299 295 293 290 289 290 291 291 291 291 292 292 294 295 296 297 297 297 297 297 299 300 302 304 305 307 308 309 310 312 312 311
289 289 290 290 291 291 292 293 294 295 296 297 299 300 302 303 304 304 305 306 308 309 310 311 312 313 312 310 307 303 299 295 293 292 291 291 291 291 290 290 291 292 294 295 296 297 297 297 297 298 298 300 302 304 306 307 309 310 310 312 313 313 312
288 289 290 291 291 292 292 293 294 295 297 298 299 301 302 303 304 304 306 307 309 310 311 313 313 312 310 306 302 298 295 293 293 294 294 293 292 290 290 290 291 293 295 296 297 297 297 297 298 299 300 302 304 306 307 309 310 311 312 313 314 314 313
288 289 290 291 291 292 293 294 295 296 297 299 300 301 302 303 304 305 307 309 310 312 313 313 312 309 305 299 295 292 291 292 292 292 292 291 290 289 290 291 293 294 295 296 297 298 298 298 300 301 303 304 305 307 309 310 312 313 314 315 315 315 314
289 290 290 291 292 292 293 294 295 296 298 299 300 301 302 303 304 306 308 310 311 313 313 312 309 304 297 291 288 288 288 289 289 289 288 288 288 289 291 294 295 297 298 298 298 299 299 300 302 303 304 305 307 309 310 312 313 313 314 316 316 316 316
289 290 291 291 292 293 293 294 296 297 298 299 300 301 302 304 306 307 309 311 312 313 312 309 304 296 288 284 285 286 287 287 286 286 286 287 290 292 294 296 298 300 301 301 300 300 300 302 303 305 306 307 309 310 311 313 314 314 315 316 317 317 318
290 291 291 291 292 293 294 295 296 297 298 299 301 302 304 306 307 308 310 312 313 312 309 304 296 288 281 280 283 284 284 284 284 285 287 289 292 295 297 299 301 302 303 302 302 303 303 305 307 308 309 310 311 312 313 314 314 314 315 316 318 319 321
290 291 291 291 292 293 294 296 296 298 299 300 302 304 305 307 308 310 312 313 312 310 305 297 287 281 279 280 281 281 282 283 283 286 289 292 295 298 299 301 302 303 304 304 305 307 308 309 310 310 311 311 312 313 313 314 315 316 317 319 320 322 324
290 290 291 291 292 293 295 296 297 298 300 301 303 304 306 307 309 311 313 313 311 306 297 287 280 279 280 280 280 280 281 283 285 288 291 294 297 300 301 302 303 304 306 307 308 309 310 310 311 311 312 313 314 315 316 317 318 319 320 321 322 323 325
290 290 290 291 293 294 296 297 298 299 301 302 303 305 307 308 311 313 313 312 308 298 286 279 279 280 280 279 279 280 282 284 287 291 293 296 298 300 302 303 305 307 308 310 311 311 312 313 313 314 316 317 318 319 319 320 320 321 321 322 323 324 325
290 290 291 292 294 295 297 298 299 300 301 303 304 306 308 310 312 313 312 309 301 287 278 278 280 280 280 279 278 279 282 286 289 292 295 297 299 301 303 305 307 308 310 312 313 314 315 316 317 317 319 319 320 320 321 321 321 322 322 323 324 324 326
290 291 292 294 295 296 297 298 299 301 302 303 305 307 309 311 313 313 310 304 291 277 275 278 279 278 278 277 277 280 284 288 291 294 297 299 301 302 305 307 309 310 312 314 315 316 317 318 319 320 320 320 320 320 321 321 321 322 322 323 324 324 325
291 292 293 295 296 297 298 299 300 301 302 304 306 308 310 312 313 311 307 296 280 272 275 276 276 275 274 274 277 282 287 291 294 296 299 301 303 305 307 309 312 313 314 316 317 318 319 319 320 320 320 320 320 321 321 321 321 322 322 322 323 324 325
292 293 294 295 296 297 298 299 300 301 303 305 307 309 311 312 311 307 300 286 272 271 274 273 272 271 270 273 279 284 289 293 296 299 302 304 306 308 310 312 314 315 316 317 318 319 319 319 320 320 320 320 320 321 321 321 321 321 322 322 322 323 324
292 293 294 295 296 297 298 299 300 302 303 305 308 310 311 311 307 300 290 276 269 271 272 271 268 266 268 274 280 285 291 296 299 302 304 306 309 311 313 315 316 317 317 318 318 318 319 319 319 319 320 320 320 321 321 321 321 321 321 321 322 322 323
291 292 293 295 296 297 298 299 301 302 304 306 309 311 310 307 301 291 279 271 271 271 271 269 265 264 268 276 281 287 294 298 301 304 306 308 311 312 314 316 316 317 317 317 317 318 318 318 318 319 320 320 320 320 320 321 321 321 321 321 321 322 322
291 292 294 295 296 297 298 300 301 303 305 308 310 310 307 301 292 281 273 272 272 271 270 267 262 263 270 277 282 289 294 298 300 303 306 308 310 312 313 314 314 315 317 317 317 317 317 317 318 318 319 319 320 320 320 321 321 321 320 320 320 321 321
291 292 294 295 296 297 298 300 302 304 307 310 310 308 302 294 284 275 272 273 272 271 270 266 261 263 270 277 283 289 293 296 299 302 305 306 308 309 310 312 313 314 316 316 317 317 317 316 317 318 318 319 320 320 320 321 321 321 320 320 320 320 321
291 293 294 295 296 297 298 301 303 305 308 310 308 303 295 285 277 273 273 273 272 271 270 264 260 263 270 276 282 287 291 294 297 300 302 303 305 306 308 310 311 313 314 315 316 316 316 316 317 317 318 319 320 320 320 320 321 321 320 319 319 320 320
292 293 294 295 296 297 299 301 303 306 309 308 303 295 286 278 273 273 273 273 272 272 270 263 260 264 270 276 281 286 290 293 296 298 300 301 303 305 306 308 309 311 312 313 315 315 315 315 316 317 317 319 320 320 320 320 321 320 320 319 319 319 320
292 293 294 295 296 297 299 302 304 306 307 303 295 286 278 273 272 272 273 273 273 273 270 264 260 264 270 276 281 285 289 292 295 297 298 300 302 303 304 306 307 309 310 312 313 314 314 315 315 316 317 318 319 320 320 320 320 320 319 319 319 319 319
292 292 293 295 296 297 299 302 305 306 303 295 286 278 273 270 271 271 271 272 273 273 270 264 261 264 270 275 280 284 288 291 294 295 297 299 300 301 302 304 305 307 309 311 312 313 314 314 315 316 317 318 319 319 320 320 320 319 319 319 319 319 319
291 292 293 294 296 298 300 304 306 304 296 286 277 273 271 269 270 270 270 271 271 269 266 262 262 265 270 275 279 283 286 290 292 294 296 297 298 299 301 303 304 306 308 309 311 313 313 314 315 316 317 318 319 319 319 319 319 319 318 318 318 318 319
291 292 293 294 296 298 302 305 305 300 289 276 270 269 268 267 268 269 270 270 268 264 261 261 261 265 270 274 278 282 286 289 291 293 295 297 298 298 300 301 303 305 307 309 311 312 313 314 315 316 317 318 318 319 319 319 319 318 318 318 318 318 318
291 292 293 294 296 299 303 306 303 293 280 270 266 265 264 264 265 267 268 267 264 260 260 261 262 265 270 274 278 282 286 289 291 293 295 296 297 298 299 300 302 305 307 309 311 312 313 313 315 316 317 317 318 319 319 319 318 318 318 318 318 318 318
291 292 293 295 297 301 305 305 298 284 271 265 263 262 262 264 265 266 266 265 262 260 261 263 265 267 271 275 279 283 286 289 291 293 295 296 297 298 298 300 302 305 307 309 311 312 312 313 315 315 316 317 318 319 319 319 318 318 318 318 318 318 318
291 292 294 296 299 303 305 302 292 277 266 262 261 260 261 264 266 267 266 265 263 263 263 265 267 269 273 276 280 283 286 289 292 294 295 296 298 298 299 300 302 305 308 309 311 312 312 313 314 315 316 317 318 318 319 318 318 318 318 318 318 318 318
292 294 296 298 301 303 303 296 284 271 263 261 260 259 262 265 268 269 270 269 268 267 268 268 269 271 274 278 281 284 288 290 293 295 296 298 299 300 300 301 303 306 308 309 310 311 312 313 314 315 315 316 318 318 318 318 317 317 318 317 318 318 318